EDT,Max TemperatureF,Mean TemperatureF,Min TemperatureF,Max Dew PointF,MeanDew PointF,Min DewpointF,Max Humidity, Mean Humidity, Min Humidity, Max Sea Level PressureIn, Mean Sea Level PressureIn, Min Sea Level PressureIn, Max VisibilityMiles, Mean VisibilityMiles, Min VisibilityMiles, Max Wind SpeedMPH, Mean Wind SpeedMPH, Max Gust SpeedMPH,PrecipitationIn, CloudCover, Events, WindDirDegrees
2013-5-1,62,58,55,59,56,54,100,89,77,30.36,30.27,30.16,10,8,2,18,10,25,0.07,8,Rain,33
2013-5-2,66,60,48,54,51,46,94,77,60,30.38,30.34,30.30,10,9,7,17,7,22,0.00,5,Rain,30
2013-5-3,64,56,48,54,48,39,100,76,40,30.32,30.28,30.24,10,10,7,24,7,32,0.00,1,,46
2013-5-4,62,56,51,54,49,46,100,82,63,30.26,30.19,30.16,10,9,2,17,10,23,0.00,6,,32
2013-5-5,60,54,48,54,50,46,94,81,68,30.16,30.13,30.10,10,7,5,17,8,21,0.00,5,,35
2013-5-6,73,64,55,61,58,54,100,82,57,30.10,30.03,29.96,10,8,2,16,8,26,0.00,7,Rain,82
2013-5-7,77,67,57,63,57,50,100,75,39,29.98,29.92,29.86,10,10,7,15,8,21,0.06,5,Rain-Thunderstorm,132
2013-5-8,75,63,51,63,56,52,100,81,44,30.03,29.98,29.95,10,10,5,10,2,16,0.13,3,Rain,179
2013-5-9,80,68,55,61,56,52,100,70,39,30.06,30.00,29.96,10,8,0,13,4,16,0.00,2,Fog,247
2013-5-10,87,72,57,61,58,55,100,63,33,30.06,30.02,29.97,10,10,7,15,4,17,0.00,1,,194
2013-5-11,84,76,68,72,64,61,94,73,45,29.98,29.88,29.78,10,10,2,17,9,24,0.41,3,Rain-Thunderstorm,190
2013-5-12,75,64,53,66,58,46,100,77,38,30.02,29.85,29.76,10,9,4,13,3,20,0.26,5,Rain,306
2013-5-13,66,56,46,52,40,30,94,58,28,30.16,30.08,30.02,10,10,7,12,2,17,0.00,5,,329
2013-5-14,68,54,39,48,38,28,100,58,24,30.24,30.17,30.12,10,10,7,12,2,16,0.00,2,Rain,236
2013-5-15,86,72,57,61,55,46,73,58,40,30.13,29.97,29.83,10,10,7,15,8,25,0.00,1,,201
2013-5-16,89,78,66,63,59,54,83,56,29,29.94,29.88,29.84,10,10,7,14,6,22,0.00,0,,235
2013-5-17,82,72,62,63,54,43,94,59,25,30.16,30.07,29.94,10,9,5,12,3,,0.00,1,,90
2013-5-18,75,67,59,66,62,55,100,84,69,30.22,30.17,30.13,10,10,2,16,5,21,0.73,6,Rain-Thunderstorm,99
2013-5-19,80,72,64,70,67,63,100,83,58,30.19,30.15,30.11,10,7,0,10,2,,0.01,3,Fog,162
2013-5-20,82,74,66,72,67,66,100,84,58,30.15,30.10,30.05,10,10,2,13,5,23,0.23,2,Rain-Thunderstorm,176
2013-5-21,82,74,66,72,69,66,100,87,65,30.07,30.02,29.96,10,8,4,12,4,,0.42,4,Rain-Thunderstorm,198
2013-5-22,84,76,68,70,67,64,94,77,55,30.03,29.99,29.94,10,10,10,17,8,24,0.00,1,,196
2013-5-23,77,73,69,72,70,66,100,91,78,30.01,29.92,29.83,10,9,2,15,6,21,2.08,4,Rain-Thunderstorm,173
2013-5-24,73,63,53,66,57,39,100,78,55,30.13,29.91,29.77,10,10,4,14,6,25,0.12,5,Rain,297
2013-5-25,69,58,46,48,38,32,93,53,27,30.21,30.16,30.11,10,10,10,20,7,24,0.00,0,,291
2013-5-26,73,58,44,54,43,34,100,61,23,30.26,30.20,30.16,10,10,2,12,2,10,0.00,0,,293
2013-5-27,78,62,46,55,50,46,100,63,32,30.29,30.25,30.20,10,9,7,8,1,,0.00,1,,216
2013-5-28,84,72,60,64,61,57,94,68,48,30.27,30.22,30.16,10,9,5,14,4,22,0.00,1,,187
2013-5-29,87,76,64,66,64,63,94,69,46,30.24,30.20,30.17,10,9,5,14,8,20,0.00,0,,199
2013-5-30,89,76,64,70,65,61,94,69,38,30.28,30.22,30.18,10,9,5,9,5,,0.00,0,,205
2013-5-31,89,78,68,70,67,63,100,71,40,30.24,30.18,30.11,10,10,5,12,5,17,0.00,1,,193